Pensacola NAS, FL

4:00 PM CST on February 21, 2018 (GMT -0600)
Pensacola Naval Air Station

Weather History for KNPA - February, 2013

Change the Weather History Date:

Monday, February 4, 2013

  Actual Average Record
Temperature  
Mean Temperature 54 °F -  
Max Temperature 64 °F 59 °F 75 °F (1999)
Min Temperature 43 °F 43 °F 26 °F (2009)
Degree Days  
Heating Degree Days 12    
Growing Degree Days 4 (Base 50)    
Moisture  
Dew Point 47 °F    
Average Humidity 76    
Maximum Humidity 97    
Minimum Humidity 52    
Precipitation  
Precipitation 0.00 in - - ()
Sea Level Pressure  
Sea Level Pressure 30.07 in    
Wind  
Wind Speed 4 mph (ENE)    
Max Wind Speed 8 mph    
Max Gust Speed -    
Visibility 10 miles    
Events      
Averages and records for this station are not official NWS values.
T = Trace of Precipitation, MM = Missing Value Source: NWS Daily Summary

Daily Weather History Graph

Daily Weather History Graph

Search for Another Location

Airport or City:

Trip Planner

Search our weather history database for the weather conditions in past years. The results will help you decide how hot, cold, wet, or windy it might be!

Date:

Astronomy

Feb. 04, 2013 Rise Set
Actual Time 6:38 AM CST 5:28 PM CST
Civil Twilight 6:13 AM CST 5:53 PM CST
Nautical Twilight 5:44 AM CST 6:22 PM CST
Astronomical Twilight 5:16 AM CST 6:50 PM CST
Moon 1:08 AM CST (2/4) 11:58 AM CST (2/4)
Length of Visible Light 11h 40m
Length of Day
10h 50m
Last Quarter, 37% of the Moon is Illuminated
Feb 4
Last Quarter
Feb 10
New
Feb 17
First Quarter
Feb 25
Full
Mar 4
Last Quarter

Hourly Weather History & Observations

Time (CST) Temp. Windchill Dew Point Humidity Pressure Visibility Wind Dir Wind Speed Gust Speed Precip Events Conditions
12:56 AM 46.9 °F - 46.0 °F 97% 30.11 in 10.0 mi NNW 4.6 mph - 0.00 in   Clear
1:56 AM 45.0 °F 42.6 °F 44.1 °F 97% 30.11 in 10.0 mi NNW 4.6 mph - N/A   Clear
2:56 AM 43.0 °F 40.3 °F 41.0 °F 93% 30.10 in 10.0 mi North 4.6 mph - N/A   Clear
4:56 AM 43.0 °F 41.3 °F 39.0 °F 86% 30.09 in 10.0 mi North 3.5 mph - N/A   Clear
5:56 AM 45.0 °F 43.5 °F 39.0 °F 80% 30.09 in 10.0 mi NE 3.5 mph - N/A   Mostly Cloudy
6:56 AM 45.0 °F 42.6 °F 39.9 °F 82% 30.09 in 10.0 mi NE 4.6 mph - N/A   Mostly Cloudy
7:56 AM 48.9 °F - 41.0 °F 74% 30.12 in 10.0 mi North 4.6 mph - N/A   Mostly Cloudy
8:56 AM 53.1 °F - 41.0 °F 64% 30.10 in 10.0 mi ENE 8.1 mph - N/A   Mostly Cloudy
9:56 AM 55.9 °F - 43.0 °F 62% 30.12 in 10.0 mi ENE 6.9 mph - N/A   Clear
10:56 AM 59.0 °F - 45.0 °F 60% 30.13 in 10.0 mi ESE 3.5 mph - N/A   Mostly Cloudy
11:56 AM 61.0 °F - 46.9 °F 60% 30.11 in 10.0 mi Variable 3.5 mph - N/A   Mostly Cloudy
12:56 PM 63.0 °F - 48.0 °F 58% 30.08 in 10.0 mi Variable 4.6 mph - N/A   Mostly Cloudy
1:56 PM 63.0 °F - 48.9 °F 60% 30.05 in 10.0 mi SE 4.6 mph - N/A   Overcast
2:56 PM 63.0 °F - 48.0 °F 58% 30.05 in 10.0 mi Calm Calm - N/A   Mostly Cloudy
3:56 PM 64.0 °F - 46.0 °F 52% 30.04 in 10.0 mi SE 4.6 mph - N/A   Mostly Cloudy
4:56 PM 60.1 °F - 48.9 °F 67% 30.03 in 10.0 mi East 4.6 mph - N/A   Mostly Cloudy
5:56 PM 57.9 °F - 50.0 °F 75% 30.04 in 10.0 mi ENE 4.6 mph - N/A   Mostly Cloudy
6:56 PM 57.9 °F - 52.0 °F 81% 30.04 in 10.0 mi East 3.5 mph - N/A   Overcast
7:56 PM 57.0 °F - 53.1 °F 87% 30.03 in 10.0 mi East 3.5 mph - N/A   Mostly Cloudy
8:56 PM 60.1 °F - 55.0 °F 83% 30.02 in 10.0 mi SE 5.8 mph - 0.00 in   Mostly Cloudy
9:56 PM 59.0 °F - 55.9 °F 90% 30.01 in 10.0 mi South 3.5 mph - N/A   Mostly Cloudy
10:56 PM 57.0 °F - 55.0 °F 93% 30.00 in 10.0 mi Calm Calm - N/A   Overcast
11:56 PM 57.0 °F - 55.0 °F 93% 29.99 in 10.0 mi Calm Calm - N/A   Overcast